This is the latest recevied weather packets stored in our database for station/object WD8INF-9. If no packets are shown the sender has not sent any weather packets the latest 1 day(s).
| Time | Temp. | Humidity | Pressure | Rain* | Wind** | Luminosity | Snow |
|---|---|---|---|---|---|---|---|
| 1777977814 | 13.33° C | - | 1006.6 hPa | 0 mm | 0 m/s | - | - |
| 1777977514 | 13.33° C | - | 1006.9 hPa | 0 mm | 0 m/s | - | - |
| 1777977214 | 13.33° C | - | 1007 hPa | 0 mm | 0 m/s | - | - |
| 1777976913 | 13.33° C | - | 1007.1 hPa | 0 mm | 0.45 m/s, 235° | - | - |
| 1777976613 | 13.33° C | - | 1006.9 hPa | 0 mm | 0 m/s | - | - |
| 1777976313 | 13.33° C | - | 1007.4 hPa | 0 mm | 0 m/s | - | - |
| 1777976012 | 13.33° C | - | 1007.2 hPa | 0 mm | 0 m/s | - | - |
| 1777975712 | 13.33° C | - | 1006.9 hPa | 0 mm | 0 m/s | - | - |
| 1777975410 | 13.89° C | - | 1007.2 hPa | 0 mm | 0 m/s | - | - |
| 1777975109 | 13.89° C | - | 1007.2 hPa | 0 mm | 0.45 m/s, 357° | - | - |
| 1777974809 | 13.89° C | - | 1007.2 hPa | 0 mm | 0.45 m/s, 294° | - | - |
| 1777974209 | 13.89° C | - | 1007.3 hPa | 0 mm | 0.45 m/s, 326° | - | - |
| 1777973908 | 13.89° C | - | 1007.1 hPa | 0 mm | 0 m/s | - | - |
| 1777973609 | 14.44° C | - | 1007.2 hPa | 0 mm | 0 m/s | - | - |
| 1777973007 | 16.67° C | - | 1006.7 hPa | 0 mm | 0 m/s | - | - |
| 1777972707 | 16.67° C | - | 1006.3 hPa | 0 mm | 0.45 m/s, 248° | - | - |
| 1777972407 | 16.67° C | - | 1006.3 hPa | 0 mm | 0 m/s | - | - |
| 1777972106 | 16.11° C | - | 1006.6 hPa | 0 mm | 0 m/s | - | - |
| 1777971806 | 16.11° C | - | 1006.4 hPa | 0 mm | 0 m/s | - | - |
| 1777971506 | 16.67° C | - | 1005.9 hPa | 0 mm | 0 m/s | - | - |
| 1777971206 | 16.11° C | - | 1005.8 hPa | 0 mm | 0 m/s | - | - |
| 1777970904 | 16.11° C | - | 1005.8 hPa | 0 mm | 0 m/s | - | - |
| 1777970604 | 16.11° C | - | 1005.9 hPa | 0 mm | 0 m/s | - | - |
| 1777970303 | 16.67° C | - | 1005.9 hPa | 0 mm | 0 m/s | - | - |
| 1777970003 | 16.11° C | - | 1005.9 hPa | 0 mm | 0 m/s | - | - |
* Rain since midnight (hover to see other rain measurements)
** Current wind speed in m/s (hover to see current wind gust speed)